Find Starlink 32310

NORAD ID: 61662 Int'l Des: 2024-193 Owner: SPXS Country: US Constellation: starlink operational
LEOCIRCULAR

リアルタイム位置

3D地球を読み込み中...

Starlink 32310について

説明を読み込み中...

次回通過

Passes for default location (London). Set your location on the main map for personalized predictions.

高度履歴

Loading altitude history...

軌道要素

1 61662U 24193B 26123.92393671 -.00001377 00000-0 -34362-4 0 9996
2 61662 53.1614 194.4212 0001230 98.4333 261.6807 15.30196752 84980
Epoch: May 3, 2026 • Age: 12 hours

現在のステータス

高度 494.0 km
速度 7.62 km/s
衛星直下点 -51.76°S, 103.14°E
打ち上げ日 Oct 26, 2024
運用期間 1.5 years
タイプ internet

技術仕様

分類 Payload
質量 730.00 kg
乾燥質量 700.00 kg
総質量 730.00 kg
長さ 0.30 m
直径 4.10 m
スパン 29.00 m
形状 Box + pan
製造者 SPXS
バスタイプ Starlink V2M
フェーズステータス In Orbit
所有者/国 SPXS/US

Most Searched